SCP
0 -0 -0 -0 -0 -0 -0 -0 -0 -0 -0 -0 -0 -0 -0 -0 -0 -0 -0 -0 -0 -0 -0 -0 -0 -0 -0 -0 -0 -0 -0 -0 -0 -0 -0 -0 -0 -0 -0 -0 0 0 0
-0 -0 -0 -0 -0 -0 -0 -0 -0 -0 -0 -0 -0 -0 -0 -0 -0 -0 -0 -0 -0 -0 -0 -0 -0 -0 -0 -0 -0 -0 -0 -0 0 0 -0 -0 -0 -0 -0 -0 -0 0 0
-0 -0 -0 -0 -0 -0 -0 -0 -0 -0 -0 -0 -0 -0 -0 -0 -0 -0 -0 -0 -0 -0 -0 -0 -0 -0 -0 -0 -0 -0 -0 -0 -0 -0 -0 0 0 -0 -0 -0 -0 -0 -0
-0 -0 -0 -0 -0 -0 -0 -0 -0 -0 -0 -0 -0 -0 -0 -0 -0 -0 -0 -0 -0 -0 -0 -0 -0 -0 -0 -0 -0 -0 -0 -0 -0 -0 0 0 0 -0 -0 -0 -0 -0 -0
-0 -0 -0 -0 -0 -0 -0 -0 -0 -0 -0 -0 -0 -0 -0 -0 -0 -0 -0 -0 -0 -0 -0 -0 -0 -0 -0 -0 -0 -0 -0 -0 -0 -0 0 0 0 -0 -0 -0 -0 -0 -0
-0 -0 -0 -0 -0 -0 -0 -0 -0 -0 -0 -0 -0 -0 -0 -0 -0 -0 -0 -0 -0 -0 -0 -0 -0 -0 -0 0 -0 -0 -0 -0 -0 0 0 0 0 -0 -0 -0 -0 -0 -0
-0 -0 -0 -0 -0 -0 -0 -0 -0 -0 -0 -0 -0 -0 -0 -0 -0 -0 -0 -0 -0 -0 -0 -0 -0 -0 -0 0 0 0 -0 0 0 0 0 0 0 0 -0 0 0 -0 0
-0 -0 0 -0 -0 -0 -0 -0 -0 -0 -0 -0 -0 -0 -0 -0 -0 -0 -0 -0 -0 -0 -0 -0 -0 -0 -0 0 0 -0 0 0 0 0 0 0 0 0 0 0 0 0 0
0 0 0 0 0 0 0 0 0 -0 -0 -0 -0 -0 -0 -0 -0 -0 -0 -0 -0 -0 -0 -0 -0 -0 -0 0 0 0 0 0 0 0 0 0 0 0 0 0 0 0 0
0 0 0 0 0 0 0 0 0 0 0 0 -0 -0 0 0 -0 -0 -0 -0 -0 -0 -0 0 0 0 0 0 0 0 0 0 0 0 0 0 0 0 0 0 0 0 0
0 0 0 0 0 0 0 0 0 0 0 0 0 0 0 0 0 0 0 0 0 0 0 0 0 0 0 0 0 0 0 0 0 0 0 0 0 0 0 0 0 0 0
0 0 0 0 0 0 0 0 0 0 0 0 0 0 0 0 0 0 0 0 0 0 0 0 0 0 0 0 0 0 0 0 0 0 0 0 0 0 0 0 0 0 0
0 0 0 0 0 0 0 0 0 0 0 0 0 0 0 0 0 0 0 0 0 0 0 0 0 0 0 0 0 0 0 0 0 0 0 0 0 0 0 0 0 0 0
0 0 0 0 0 0 0 0 0 0 0 0 0 0 0 0 0 0 0 0 0 0 0 0 0 0 0 0 0 0 0 0 0 0 0 0 0 0 0 0 0 0 0
0 0 0 0 0 0 0 0 0 0 0 0 0 0 0 0 0 0 0 0 0 0 0 0 0 0 0 0 0 0 0 0 0 0 0 0 0 0 0 0 0 0 0
0 0 0 0 0 0 0 0 0 0 0 0 0 0 0 0 0 0 0 0 0 0 0 0 0 0 0 0 0 0 0 0 0 0 0 0 0 0 0 0 0 0 0
0 0 0 0 0 0 0 0 0 0 0 0 0 0 0 0 0 0 0 0 0 0 0 0 0 0 0 0 0 0 0 0 0 0 0 0 0 0 0 0 0 0 0
0 0 0 0 0 0 0 0 0 0 0 0 0 0 0 0 0 0 0 0 0 0 0 0 0 0 0 0 0 0 0 0 0 0 0 0 0 0 0 0 0 0 0
0 0 0 0 0 0 0 0 0 0 0 0 0 0 0 0 0 0 0 0 0 0 0 0 0 0 0 0 0 0 0 0 0 0 0 0 0 0 0 0 0 0 0
0 0 0 0 0 0 0 0 0 0 0 0 0 0 0 0 0 0 0 0 0 0 0 0 0 0 0 0 0 0 0 0 0 0 0 0 0 0 0 0 0 0 0
0 0 0 0 0 0 0 0 0 0 0 0 0 0 0 0 0 0 0 0 0 0 0 0 0 0 0 0 0 0 0 0 0 0 0 0 0 0 0 0 0 0 0
0 0 0 0 0 0 0 0 0 0 0 0 0 0 0 0 0 0 0 0 0 0 0 0 0 0 0 0 0 0 0 0 0 0 0 0 0 0 -0 -0 0 0 0
0 0 0 0 0 0 0 0 0 0 0 0 0 0 0 0 0 0 0 0 0 0 0 0 0 0 0 0 0 0 0 0 0 0 0 0 0 0 -0 0 0 0 0
0 0 0 0 0 0 0 0 0 0 0 0 0 0 0 0 0 0 0 0 0 0 0 0 0 0 0 0 0 0 0 0 -0 0 0 0 0 0 0 0 0 0 0
0 0 0 0 0 0 0 0 0 0 0 0 0 0 0 0 0 0 0 0 0 0 0 0 0 0 0 -0 0 0 0 0 0 0 0 0 0 -0 -0 0 -0 -0 -0
0 0 0 0 0 0 0 0 0 0 0 0 0 0 0 0 0 0 0 0 0 0 0 0 0 0 0 0 0 0 0 0 0 0 0 0 0 0 0 -0 -0 -0 -0
Wind_Speed_500mb
15 19 23 25 27 26 23 23 22 19 16 17 18 19 21 23 23 22 18 17 19 19 19 19 17 16 20 17 19 22 23 22 22 21 21 20 16 18 21 25 24 23 21
14 25 24 24 26 25 23 20 18 18 17 16 15 17 16 19 22 24 21 17 18 19 20 19 16 15 17 18 18 22 25 27 23 22 21 12 15 19 20 22 24 24 20
18 26 25 25 24 24 21 20 19 16 14 14 16 14 14 18 24 22 21 21 18 17 17 18 16 15 14 15 18 22 27 27 25 23 16 12 10 11 12 14 17 21 21
21 22 26 25 25 23 22 19 17 17 16 14 14 14 11 15 20 22 20 18 16 15 16 16 15 14 14 14 16 20 23 21 18 11 14 17 9 8 8 8 8 8 12
17 22 25 23 22 20 20 19 17 15 12 13 15 12 10 13 18 21 23 20 16 17 18 17 16 14 14 15 16 23 22 19 13 11 3 11 11 9 9 7 6 4 3
19 18 29 22 20 18 17 17 17 15 13 14 15 10 7 10 16 20 23 23 19 18 17 18 17 16 15 16 20 28 24 22 15 4 12 14 12 14 14 12 7 4 3
22 17 17 21 24 15 16 16 17 13 14 15 15 12 9 7 13 17 20 22 21 20 21 20 18 17 16 17 19 22 19 16 5 4 9 13 15 16 16 15 14 12 10
26 22 20 22 28 25 21 17 15 15 14 13 12 14 6 7 13 17 18 18 20 22 21 20 20 19 17 16 15 13 10 5 6 5 11 15 16 17 18 18 16 15 12
25 23 21 27 30 26 22 19 16 15 16 15 12 12 5 3 8 7 12 15 17 21 24 24 21 19 16 13 9 6 4 2 8 9 11 13 14 16 17 17 17 16 15
27 20 18 27 24 24 20 18 17 16 17 17 13 12 7 4 8 6 5 8 10 17 21 23 23 22 21 16 11 5 2 5 8 7 8 11 12 12 13 14 15 15 14
25 26 24 25 29 29 25 20 18 16 18 17 15 15 11 5 5 7 7 13 16 18 23 24 22 22 21 18 17 14 13 11 13 10 9 9 12 14 15 14 14 15 15
32 32 32 36 32 31 24 23 19 20 19 18 19 18 13 9 14 7 6 10 13 14 20 25 27 27 26 24 21 19 17 14 13 12 12 14 14 14 14 17 17 18 16
28 34 34 27 42 45 32 28 27 23 23 23 21 23 19 25 18 12 7 8 7 8 14 17 23 22 25 25 24 21 17 17 18 16 12 10 9 10 12 15 17 17 19
31 29 31 33 28 44 49 36 34 33 31 29 26 26 25 31 20 11 10 7 5 5 10 5 12 20 25 24 24 21 18 13 12 14 14 14 14 14 14 14 15 14 16
29 28 27 31 35 30 40 48 37 37 35 33 29 28 30 33 19 16 10 7 10 6 5 5 9 11 22 24 25 22 18 15 13 12 11 13 13 13 14 16 17 18 18
20 20 21 24 35 42 38 40 41 40 36 35 34 30 28 16 17 12 6 8 12 7 2 4 10 13 15 21 22 17 16 15 16 15 12 12 14 13 14 15 16 17 18
22 22 24 26 30 39 40 42 43 39 35 34 34 30 22 19 17 13 13 12 9 7 6 8 13 14 19 14 15 15 15 16 16 19 18 13 11 12 14 14 16 17 18
24 23 24 27 30 37 40 42 42 41 33 28 27 23 24 23 20 19 17 13 12 12 10 10 11 12 12 19 16 19 22 21 20 24 25 22 17 14 16 17 17 18 20
25 23 23 26 33 33 41 44 42 40 36 34 26 27 26 26 22 17 15 12 12 8 6 6 7 14 23 23 19 21 26 28 24 26 23 20 23 23 22 22 23 25 26
22 22 22 24 33 42 47 45 46 41 35 33 30 28 30 26 23 18 17 14 8 6 11 13 17 21 25 26 22 17 18 20 28 26 22 21 23 24 23 26 29 33 34
22 18 22 31 41 43 58 46 52 44 41 38 35 33 32 28 24 17 15 20 23 21 20 17 15 15 17 23 16 12 11 9 20 26 23 17 27 30 30 38 44 46 43
20 21 28 36 42 55 59 48 53 52 48 44 41 36 30 27 27 29 30 30 25 21 19 17 18 22 26 29 30 12 5 6 5 19 13 25 39 37 52 53 57 55 53
27 29 37 41 58 55 55 64 60 57 53 49 44 42 41 39 38 34 30 25 21 19 19 21 23 24 30 31 33 26 11 11 43 12 21 34 41 54 59 58 59 59 61
37 38 44 53 61 62 57 60 58 56 57 53 54 51 48 40 34 28 23 20 18 18 18 22 25 27 27 30 29 31 26 28 21 33 41 60 59 62 67 68 71 65 61
42 46 47 53 57 61 59 59 56 59 57 58 56 52 45 37 30 25 22 19 18 20 24 25 27 31 34 33 35 33 32 29 24 42 54 79 80 76 77 83 74 73 65
50 50 58 59 60 55 55 56 57 58 65 64 56 48 41 33 27 22 18 17 19 19 21 25 28 29 32 33 34 35 37 40 44 47 65 79 79 82 82 80 82 80 76
Wind_Direction_500mb
183 177 161 155 150 141 135 129 125 114 105 101 94 90 74 60 50 41 45 54 60 64 68 70 68 68 67 82 77 73 70 65 65 60 59 56 76 74 67 65 70 65 70
183 170 161 155 152 148 144 136 127 123 124 113 104 105 81 54 45 43 47 58 63 62 58 57 59 61 67 88 82 78 76 75 59 58 56 67 77 79 73 68 64 65 63
164 168 161 155 155 153 150 142 139 132 122 122 121 112 74 63 53 47 47 56 60 55 53 55 52 54 67 81 89 90 93 93 70 60 52 79 70 73 73 72 70 66 67
158 174 168 158 156 158 156 153 148 141 138 133 135 127 90 64 47 48 50 52 60 59 58 54 50 50 56 71 85 96 101 94 93 75 39 56 64 67 62 62 70 75 71
164 167 170 160 160 161 164 162 155 150 146 147 141 140 102 65 52 46 40 46 51 48 46 46 51 56 62 75 96 106 108 84 68 67 331 8 36 50 56 49 44 45 65
166 158 173 168 164 160 169 174 165 159 155 153 150 150 115 51 39 41 38 41 47 49 47 45 45 48 57 79 104 116 110 87 87 78 39 24 20 28 32 32 31 16 11
171 166 168 178 173 189 170 165 172 173 166 160 162 166 145 54 47 46 39 39 40 40 41 43 46 51 61 80 103 124 125 111 116 303 1 17 15 21 25 20 15 8 358
167 180 194 194 174 186 176 178 178 179 177 172 171 172 148 73 52 31 37 43 45 46 45 44 43 46 54 71 97 136 159 184 322 354 22 17 12 17 20 15 13 9 1
183 185 199 188 185 186 187 184 183 178 180 188 184 182 163 87 68 49 10 17 34 40 42 44 43 42 46 56 77 114 178 298 340 355 4 13 11 12 17 14 13 9 4
179 183 169 186 193 193 199 199 194 192 188 192 186 187 200 191 132 143 19 343 55 37 32 30 34 35 30 23 23 37 326 319 331 344 359 7 358 1 10 9 6 5 4
174 165 170 178 188 189 189 203 205 205 200 199 194 200 207 199 140 116 359 53 32 41 30 33 35 34 33 28 20 6 348 335 324 332 342 348 347 349 349 352 352 355 359
187 188 186 190 189 190 187 199 207 205 211 214 216 209 203 198 164 107 78 86 62 37 27 28 33 29 31 29 24 12 354 340 325 328 332 337 339 339 339 339 343 341 346
207 201 209 211 196 197 187 182 202 209 204 208 209 208 203 184 167 162 166 132 65 48 21 16 23 23 16 18 19 14 0 347 331 326 322 315 314 319 325 328 329 334 358
224 218 206 214 213 194 192 191 194 205 201 196 194 199 203 189 169 195 192 176 132 338 327 337 16 9 357 350 354 355 350 340 322 315 312 308 305 307 309 310 310 316 320
219 222 224 215 217 206 200 196 199 204 200 207 200 193 192 199 206 211 205 223 276 206 236 333 330 3 340 327 333 336 338 338 328 313 300 297 301 304 305 303 307 308 306
217 220 224 216 209 211 201 197 200 203 203 192 192 191 207 205 199 199 206 255 185 189 25 2 312 316 296 322 329 346 0 8 10 351 318 305 303 311 311 313 310 303 299
228 230 231 224 213 210 196 200 202 201 204 201 205 202 213 230 205 206 183 180 193 219 254 274 262 284 326 356 7 13 18 17 14 9 2 351 332 317 312 312 306 306 308
246 242 239 224 212 204 194 200 205 204 209 198 192 197 192 204 203 204 196 200 204 191 218 245 299 341 25 31 29 32 38 24 23 34 36 37 33 19 8 5 353 339 326
248 253 244 216 197 193 196 196 196 191 183 189 190 198 195 196 196 205 201 204 174 188 260 333 51 60 57 52 43 58 50 51 49 31 32 28 33 28 24 24 17 9 359
253 247 225 204 183 187 185 194 188 181 180 181 185 192 189 180 183 175 166 153 163 150 116 89 62 47 47 47 50 66 51 41 32 24 19 24 21 13 11 2 355 353 350
237 231 194 179 179 181 174 180 179 175 170 172 171 168 165 162 160 165 159 136 125 124 105 84 56 41 36 49 52 57 40 35 12 353 344 352 349 345 341 338 337 335 334
221 195 186 179 180 177 168 172 180 172 167 168 161 155 155 153 146 142 137 131 121 108 99 75 48 29 24 23 35 55 13 295 261 301 325 321 324 325 323 324 326 327 329
198 188 185 182 183 192 194 175 172 165 159 159 153 150 145 143 137 132 122 108 96 77 61 49 41 33 33 23 21 34 12 341 335 227 280 305 308 314 319 320 324 326 326
190 192 188 187 182 181 179 178 167 171 164 156 149 145 139 134 127 118 107 93 77 63 50 41 35 30 26 30 29 30 23 358 339 318 311 314 317 319 323 324 326 329 327
193 188 186 183 180 171 176 180 172 164 159 153 147 145 140 132 120 107 94 79 64 50 45 41 34 28 24 19 15 8 1 355 340 320 316 322 321 324 323 326 327 329 324
187 187 183 178 176 178 180 179 177 171 161 155 149 148 139 131 120 107 89 70 57 49 41 32 28 21 19 16 9 1 355 348 337 331 320 321 320 316 316 318 321 321 321
Wind_Speed_850mb
15 19 23 25 27 26 23 23 22 19 16 17 18 19 21 23 23 22 18 17 19 19 19 19 17 16 20 17 19 22 23 22 22 21 21 20 16 18 21 25 24 23 21
14 25 24 24 26 25 23 20 18 18 17 16 15 17 16 19 22 24 21 17 18 19 20 19 16 15 17 18 18 22 25 27 23 22 21 12 15 19 20 22 24 24 20
18 26 25 25 24 24 21 20 19 16 14 14 16 14 14 18 24 22 21 21 18 17 17 18 16 15 14 15 18 22 27 27 25 23 16 12 10 11 12 14 17 21 21
21 22 26 25 25 23 22 19 17 17 16 14 14 14 11 15 20 22 20 18 16 15 16 16 15 14 14 14 16 20 23 21 18 11 14 17 9 8 8 8 8 8 12
17 22 25 23 22 20 20 19 17 15 12 13 15 12 10 13 18 21 23 20 16 17 18 17 16 14 14 15 16 23 22 19 13 11 3 11 11 9 9 7 6 4 3
19 18 29 22 20 18 17 17 17 15 13 14 15 10 7 10 16 20 23 23 19 18 17 18 17 16 15 16 20 28 24 22 15 4 12 14 12 14 14 12 7 4 3
22 17 17 21 24 15 16 16 17 13 14 15 15 12 9 7 13 17 20 22 21 20 21 20 18 17 16 17 19 22 19 16 5 4 9 13 15 16 16 15 14 12 10
26 22 20 22 28 25 21 17 15 15 14 13 12 14 6 7 13 17 18 18 20 22 21 20 20 19 17 16 15 13 10 5 6 5 11 15 16 17 18 18 16 15 12
25 23 21 27 30 26 22 19 16 15 16 15 12 12 5 3 8 7 12 15 17 21 24 24 21 19 16 13 9 6 4 2 8 9 11 13 14 16 17 17 17 16 15
27 20 18 27 24 24 20 18 17 16 17 17 13 12 7 4 8 6 5 8 10 17 21 23 23 22 21 16 11 5 2 5 8 7 8 11 12 12 13 14 15 15 14
25 26 24 25 29 29 25 20 18 16 18 17 15 15 11 5 5 7 7 13 16 18 23 24 22 22 21 18 17 14 13 11 13 10 9 9 12 14 15 14 14 15 15
32 32 32 36 32 31 24 23 19 20 19 18 19 18 13 9 14 7 6 10 13 14 20 25 27 27 26 24 21 19 17 14 13 12 12 14 14 14 14 17 17 18 16
28 34 34 27 42 45 32 28 27 23 23 23 21 23 19 25 18 12 7 8 7 8 14 17 23 22 25 25 24 21 17 17 18 16 12 10 9 10 12 15 17 17 19
31 29 31 33 28 44 49 36 34 33 31 29 26 26 25 31 20 11 10 7 5 5 10 5 12 20 25 24 24 21 18 13 12 14 14 14 14 14 14 14 15 14 16
29 28 27 31 35 30 40 48 37 37 35 33 29 28 30 33 19 16 10 7 10 6 5 5 9 11 22 24 25 22 18 15 13 12 11 13 13 13 14 16 17 18 18
20 20 21 24 35 42 38 40 41 40 36 35 34 30 28 16 17 12 6 8 12 7 2 4 10 13 15 21 22 17 16 15 16 15 12 12 14 13 14 15 16 17 18
22 22 24 26 30 39 40 42 43 39 35 34 34 30 22 19 17 13 13 12 9 7 6 8 13 14 19 14 15 15 15 16 16 19 18 13 11 12 14 14 16 17 18
24 23 24 27 30 37 40 42 42 41 33 28 27 23 24 23 20 19 17 13 12 12 10 10 11 12 12 19 16 19 22 21 20 24 25 22 17 14 16 17 17 18 20
25 23 23 26 33 33 41 44 42 40 36 34 26 27 26 26 22 17 15 12 12 8 6 6 7 14 23 23 19 21 26 28 24 26 23 20 23 23 22 22 23 25 26
22 22 22 24 33 42 47 45 46 41 35 33 30 28 30 26 23 18 17 14 8 6 11 13 17 21 25 26 22 17 18 20 28 26 22 21 23 24 23 26 29 33 34
22 18 22 31 41 43 58 46 52 44 41 38 35 33 32 28 24 17 15 20 23 21 20 17 15 15 17 23 16 12 11 9 20 26 23 17 27 30 30 38 44 46 43
20 21 28 36 42 55 59 48 53 52 48 44 41 36 30 27 27 29 30 30 25 21 19 17 18 22 26 29 30 12 5 6 5 19 13 25 39 37 52 53 57 55 53
27 29 37 41 58 55 55 64 60 57 53 49 44 42 41 39 38 34 30 25 21 19 19 21 23 24 30 31 33 26 11 11 43 12 21 34 41 54 59 58 59 59 61
37 38 44 53 61 62 57 60 58 56 57 53 54 51 48 40 34 28 23 20 18 18 18 22 25 27 27 30 29 31 26 28 21 33 41 60 59 62 67 68 71 65 61
42 46 47 53 57 61 59 59 56 59 57 58 56 52 45 37 30 25 22 19 18 20 24 25 27 31 34 33 35 33 32 29 24 42 54 79 80 76 77 83 74 73 65
50 50 58 59 60 55 55 56 57 58 65 64 56 48 41 33 27 22 18 17 19 19 21 25 28 29 32 33 34 35 37 40 44 47 65 79 79 82 82 80 82 80 76
Wind_Direction_850mb
183 177 161 155 150 141 135 129 125 114 105 101 94 90 74 60 50 41 45 54 60 64 68 70 68 68 67 82 77 73 70 65 65 60 59 56 76 74 67 65 70 65 70
183 170 161 155 152 148 144 136 127 123 124 113 104 105 81 54 45 43 47 58 63 62 58 57 59 61 67 88 82 78 76 75 59 58 56 67 77 79 73 68 64 65 63
164 168 161 155 155 153 150 142 139 132 122 122 121 112 74 63 53 47 47 56 60 55 53 55 52 54 67 81 89 90 93 93 70 60 52 79 70 73 73 72 70 66 67
158 174 168 158 156 158 156 153 148 141 138 133 135 127 90 64 47 48 50 52 60 59 58 54 50 50 56 71 85 96 101 94 93 75 39 56 64 67 62 62 70 75 71
164 167 170 160 160 161 164 162 155 150 146 147 141 140 102 65 52 46 40 46 51 48 46 46 51 56 62 75 96 106 108 84 68 67 331 8 36 50 56 49 44 45 65
166 158 173 168 164 160 169 174 165 159 155 153 150 150 115 51 39 41 38 41 47 49 47 45 45 48 57 79 104 116 110 87 87 78 39 24 20 28 32 32 31 16 11
171 166 168 178 173 189 170 165 172 173 166 160 162 166 145 54 47 46 39 39 40 40 41 43 46 51 61 80 103 124 125 111 116 303 1 17 15 21 25 20 15 8 358
167 180 194 194 174 186 176 178 178 179 177 172 171 172 148 73 52 31 37 43 45 46 45 44 43 46 54 71 97 136 159 184 322 354 22 17 12 17 20 15 13 9 1
183 185 199 188 185 186 187 184 183 178 180 188 184 182 163 87 68 49 10 17 34 40 42 44 43 42 46 56 77 114 178 298 340 355 4 13 11 12 17 14 13 9 4
179 183 169 186 193 193 199 199 194 192 188 192 186 187 200 191 132 143 19 343 55 37 32 30 34 35 30 23 23 37 326 319 331 344 359 7 358 1 10 9 6 5 4
174 165 170 178 188 189 189 203 205 205 200 199 194 200 207 199 140 116 359 53 32 41 30 33 35 34 33 28 20 6 348 335 324 332 342 348 347 349 349 352 352 355 359
187 188 186 190 189 190 187 199 207 205 211 214 216 209 203 198 164 107 78 86 62 37 27 28 33 29 31 29 24 12 354 340 325 328 332 337 339 339 339 339 343 341 346
207 201 209 211 196 197 187 182 202 209 204 208 209 208 203 184 167 162 166 132 65 48 21 16 23 23 16 18 19 14 0 347 331 326 322 315 314 319 325 328 329 334 358
224 218 206 214 213 194 192 191 194 205 201 196 194 199 203 189 169 195 192 176 132 338 327 337 16 9 357 350 354 355 350 340 322 315 312 308 305 307 309 310 310 316 320
219 222 224 215 217 206 200 196 199 204 200 207 200 193 192 199 206 211 205 223 276 206 236 333 330 3 340 327 333 336 338 338 328 313 300 297 301 304 305 303 307 308 306
217 220 224 216 209 211 201 197 200 203 203 192 192 191 207 205 199 199 206 255 185 189 25 2 312 316 296 322 329 346 0 8 10 351 318 305 303 311 311 313 310 303 299
228 230 231 224 213 210 196 200 202 201 204 201 205 202 213 230 205 206 183 180 193 219 254 274 262 284 326 356 7 13 18 17 14 9 2 351 332 317 312 312 306 306 308
246 242 239 224 212 204 194 200 205 204 209 198 192 197 192 204 203 204 196 200 204 191 218 245 299 341 25 31 29 32 38 24 23 34 36 37 33 19 8 5 353 339 326
248 253 244 216 197 193 196 196 196 191 183 189 190 198 195 196 196 205 201 204 174 188 260 333 51 60 57 52 43 58 50 51 49 31 32 28 33 28 24 24 17 9 359
253 247 225 204 183 187 185 194 188 181 180 181 185 192 189 180 183 175 166 153 163 150 116 89 62 47 47 47 50 66 51 41 32 24 19 24 21 13 11 2 355 353 350
237 231 194 179 179 181 174 180 179 175 170 172 171 168 165 162 160 165 159 136 125 124 105 84 56 41 36 49 52 57 40 35 12 353 344 352 349 345 341 338 337 335 334
221 195 186 179 180 177 168 172 180 172 167 168 161 155 155 153 146 142 137 131 121 108 99 75 48 29 24 23 35 55 13 295 261 301 325 321 324 325 323 324 326 327 329
198 188 185 182 183 192 194 175 172 165 159 159 153 150 145 143 137 132 122 108 96 77 61 49 41 33 33 23 21 34 12 341 335 227 280 305 308 314 319 320 324 326 326
190 192 188 187 182 181 179 178 167 171 164 156 149 145 139 134 127 118 107 93 77 63 50 41 35 30 26 30 29 30 23 358 339 318 311 314 317 319 323 324 326 329 327
193 188 186 183 180 171 176 180 172 164 159 153 147 145 140 132 120 107 94 79 64 50 45 41 34 28 24 19 15 8 1 355 340 320 316 322 321 324 323 326 327 329 324
187 187 183 178 176 178 180 179 177 171 161 155 149 148 139 131 120 107 89 70 57 49 41 32 28 21 19 16 9 1 355 348 337 331 320 321 320 316 316 318 321 321 321